Hourly Data Report for October 29, 2015

All times are specified in Local Standard Time (LST). Add 1 hour to adjust for Daylight Saving Time where and when it is observed.

CAPE DORSET A
NUNAVUT

64°13'49.000" N
76°31'30.000" W
48.20 m
2400637
71366
YTE

Download Data

Hourly Data (October 2015)
Hourly Data Report for October 29, 2015
Temp Definition
°C
Dew Point Temp Definition
°C
Rel Hum Definition
%
Wind Dir Definition
10's deg

Wind Spd Definition
km/h
Visibility Definition
km
Stn Press Definition
kPa
Hmdx Definition


Wind Chill Definition


Weather Definition


TIME
00:00 Legend Double Dagger -6.2 -8.3 85 22 9 16.1 100.33   -10 Snow
01:00 Legend Double Dagger -6.1 -6.8 95 21 11 1.2 100.29   -11 Snow
02:00 Legend Double Dagger -6.7 -8.1 90 18 8 16.1 100.26   -11 Snow
03:00 Legend Double Dagger -5.7 -7.6 87 13 30 4.8 100.20   -14 Snow
04:00 Legend Double Dagger -5.5 -8.0 83 13 39 12.9 100.16   -15 LegendNANA
05:00 Legend Double Dagger -5.5 -7.9 83 12 37 16.1 100.14   -14 LegendNANA
06:00 Legend Double Dagger -5.5 -8.3 81 12 39 16.1 100.10   -15 LegendNANA
07:00 Legend Double Dagger -5.5 -8.8 78 10 37 16.1 100.07   -14 Snow
08:00 Legend Double Dagger -5.6 -8.9 78 9 30 14.5 100.02   -14 Snow
09:00 Legend Double Dagger -5.6 -8.2 82 10 30 6.4 99.99   -14 Snow
10:00 Legend Double Dagger -5.4 -9.8 71 12 32 11.3 99.96   -14 Snow
11:00 Legend Double Dagger -5.6 -9.0 77 9 35 16.1 99.90   -14 Snow
12:00 Legend Double Dagger -6.0 -9.7 75 9 34 16.1 99.86   -15 LegendNANA
13:00 Legend Double Dagger -6.7 -9.8 79 7 32 16.1 99.85   -15 LegendNANA
14:00 Legend Double Dagger -9.3 -10.7 90 3 24 16.1 99.86   -18 Snow
15:00 Legend Double Dagger -12.0 -13.3 90 3 24 16.1 99.87   -21 LegendNANA
16:00 Legend Double Dagger -12.3 -13.8 89 2 17 16.1 99.85   -20 LegendNANA
17:00 Legend Double Dagger -13.1 -15.4 83 2 22 16.1 99.78   -22 Snow
18:00 Legend Double Dagger -13.0 -16.7 74 3 28 16.1 99.74   -23 Snow
19:00 Legend Double Dagger -13.4 -17.9 69 3 24 16.1 99.71   -23 LegendNANA
20:00 Legend Double Dagger -13.6 -16.6 79 4 28 16.1 99.67   -24 LegendNANA
21:00 Legend Double Dagger -13.0 -15.3 83 5 32 16.1 99.62   -24 LegendNANA
22:00 Legend Double Dagger -13.1 -15.2 85 5 35 12.9 99.58   -24 LegendNANA
23:00 Legend Double Dagger -14.0 -15.9 86 4 26 16.1 99.56   -24 LegendNANA

Notes on Data Quality.

Legend

  • E = Estimated
  • M = Missing
  • NA = Not Available
  • ‡ = Partner data that is not subject to review by the National Climate Archives
Date modified: